Dewpoint
50 52 52 53 53 54 54 58 59 59 58 58 58 59 59 59 59 58 58 58 59 59 60 60 60 59 51 45 42 47 54 51 48 45 41 38 33 31 29 27 27 24 25 27 30 30 27
51 51 50 50 50 51 52 53 55 56 59 58 58 58 59 59 59 59 58 58 58 59 60 60 59 56 46 39 42 43 40 41 44 42 38 37 34 34 30 27 26 30 30 27 28 28 27
51 52 51 51 50 52 51 52 53 54 57 58 58 59 59 59 59 58 58 57 58 59 59 59 58 47 43 40 39 40 37 38 39 40 38 39 38 31 32 29 30 31 25 28 26 28 26
50 51 51 50 51 51 51 52 51 52 55 58 59 59 59 59 59 58 58 57 58 59 59 58 56 45 38 41 39 38 38 39 40 40 42 41 39 37 34 33 30 28 28 27 29 28 30
48 50 51 51 51 52 52 51 51 52 54 58 59 59 59 59 59 57 57 58 58 59 58 55 47 44 38 44 36 39 38 38 39 39 40 34 39 34 32 30 30 29 23 26 29 28 30
46 48 49 51 51 51 52 52 52 52 53 57 58 58 58 59 58 57 57 58 57 57 52 48 43 38 36 35 37 39 38 39 38 40 40 39 36 30 30 29 24 29 25 26 27 29 29
46 47 48 50 51 51 51 51 52 51 52 53 57 58 58 58 57 56 55 52 47 45 48 38 37 34 36 37 37 40 39 38 38 37 32 36 31 25 28 28 29 25 24 24 26 29 28
46 47 47 49 49 50 51 51 51 51 51 51 57 58 58 58 57 57 54 50 46 45 41 45 44 44 40 37 35 39 39 33 34 30 33 31 28 29 31 31 28 27 25 24 27 29 27
46 46 47 48 49 49 49 50 51 51 51 52 56 57 58 57 57 55 51 49 49 48 35 36 44 42 43 40 37 38 38 35 31 31 33 31 30 32 31 28 26 26 24 24 24 30 28
47 46 46 47 48 48 49 49 50 50 51 52 54 57 57 57 51 51 49 48 50 47 25 28 39 40 42 41 37 40 39 35 34 30 32 31 32 28 29 28 27 24 28 27 29 27 19
47 47 45 46 47 47 49 50 50 50 51 52 51 54 56 53 49 46 46 50 49 39 6 26 38 40 41 35 35 38 40 36 31 28 28 28 28 28 29 28 28 26 31 30 30 28 28
47 47 46 46 47 46 47 49 50 50 51 51 52 51 56 53 53 52 51 49 42 28 15 29 34 34 35 35 36 38 36 37 35 29 30 28 33 31 29 31 30 31 31 33 32 29 21
46 47 46 46 47 47 47 48 49 49 49 50 52 51 55 52 46 52 50 44 31 23 23 30 28 34 32 31 35 35 33 32 29 26 27 30 31 31 31 28 30 29 29 24 21 18 17
46 47 45 45 46 46 47 47 49 49 49 49 50 51 54 50 50 51 50 38 27 25 22 32 32 32 30 30 32 34 32 29 30 28 29 26 23 29 30 29 28 29 29 23 10 23 23
46 47 45 46 47 47 47 48 49 50 50 49 49 50 53 51 52 51 45 33 23 27 25 30 29 26 26 28 31 31 31 30 28 30 24 28 28 31 30 30 29 27 27 31 27 27 21
47 46 45 46 46 47 47 47 47 49 49 48 46 50 50 52 53 48 40 32 30 28 31 30 20 26 23 26 28 29 30 30 29 28 30 29 27 30 29 30 29 29 29 26 27 20 18
47 46 45 47 46 47 47 46 46 48 48 48 48 44 50 52 50 42 33 31 32 31 30 28 23 25 24 25 26 28 29 28 29 30 29 28 28 27 28 27 27 27 27 27 28 27 20
45 45 46 47 47 47 47 45 46 47 47 46 41 35 46 51 40 39 32 34 34 29 33 34 34 31 21 26 25 26 26 30 37 31 28 29 27 25 26 29 29 28 27 27 25 22 25
45 45 45 45 46 46 46 46 46 47 45 43 34 37 44 46 34 36 36 31 32 30 32 34 31 34 32 27 26 26 33 37 38 36 30 29 27 22 24 26 28 27 28 27 26 26 24
45 45 45 45 46 46 46 46 46 46 45 40 34 32 36 38 37 36 34 33 32 38 34 33 32 33 32 30 29 30 35 37 37 38 41 39 32 24 20 23 27 25 27 27 26 24 22
45 45 45 45 46 45 44 46 46 46 47 42 34 32 33 30 32 34 35 31 32 33 36 37 35 34 32 30 30 32 36 36 36 37 37 37 30 32 31 31 29 26 26 27 27 26 23
44 45 45 45 45 45 44 45 46 47 48 42 34 33 34 32 32 32 36 34 33 33 33 33 32 34 34 31 32 30 34 34 33 35 35 35 29 29 27 30 31 29 30 29 28 27 27
42 43 44 45 45 45 45 44 46 46 46 41 42 41 37 33 32 32 33 35 34 34 34 37 36 35 33 34 36 36 36 36 35 32 33 31 29 24 21 28 26 20 30 31 31 31 30
43 42 42 43 45 45 45 45 45 46 46 44 43 41 35 30 33 32 32 34 34 34 31 35 36 34 36 38 37 36 35 35 35 35 35 32 29 26 22 25 20 23 28 28 25 24 24
43 43 42 42 44 45 45 45 46 46 46 43 44 41 36 31 34 33 33 32 32 34 32 34 35 37 38 36 31 29 29 30 31 34 34 35 31 28 27 25 27 26 27 27 26 24 21
42 43 43 42 42 43 44 44 44 45 46 45 44 45 40 33 32 35 33 33 31 31 32 33 37 39 38 33 30 24 22 26 25 27 34 34 33 30 26 22 20 24 25 27 27 22 22
42 41 42 43 41 41 42 44 44 45 46 44 42 44 39 33 37 36 34 33 34 32 31 33 34 35 34 24 23 21 22 27 23 22 24 26 26 23 24 21 24 27 23 27 19 19 25
38 41 42 41 43 42 41 42 44 45 46 43 42 44 40 35 36 36 35 33 33 31 28 33 29 28 25 19 21 22 19 23 22 24 24 23 23 22 25 20 17 25 25 21 24 27 18
36 38 41 41 41 42 42 42 44 44 44 43 39 44 43 37 35 35 33 33 35 36 32 32 29 30 29 24 21 21 19 18 19 16 22 19 22 23 21 21 27 26 23 18 19 13 14
Lifted_Index
11 11 12 12 12 11 9 8 7 7 7 7 7 7 7 7 7 7 8 7 7 7 6 6 7 8 8 8 8 8 8 9 9 9 8 7 6 5 4 4 4 4 5 5 5 6 6
9 10 11 12 12 11 10 9 9 8 7 7 7 6 6 7 7 7 8 7 7 7 7 7 7 8 8 8 8 8 8 9 9 9 8 7 7 6 5 4 4 4 4 5 5 5 5
7 7 8 10 11 11 11 10 10 9 8 7 6 6 6 6 7 7 8 8 7 7 7 7 8 8 8 8 8 9 9 9 9 9 9 8 7 6 5 5 4 4 4 4 4 4 4
4 4 6 7 9 10 10 11 10 10 8 7 5 5 6 6 7 7 8 8 7 7 7 7 8 8 8 8 8 9 9 9 10 10 10 9 8 7 5 5 4 4 3 3 3 4 4
1 2 4 6 7 8 9 10 10 9 8 6 5 5 5 6 6 7 8 8 8 7 7 8 8 8 8 8 8 8 9 9 9 10 10 9 8 6 5 4 4 3 3 2 3 4 4
0 1 2 4 6 7 8 8 9 9 8 7 5 4 5 5 6 7 7 7 7 7 8 8 8 8 8 8 8 9 9 9 9 9 8 8 7 5 4 4 3 3 3 3 3 4 4
-0 -0 1 3 5 6 7 8 8 9 8 7 6 5 4 5 6 7 7 7 7 7 7 7 8 8 7 7 8 8 9 8 8 7 7 6 5 4 4 4 4 3 3 3 4 5 5
-0 -0 -0 1 3 5 6 7 8 9 9 7 6 4 4 4 5 6 7 6 6 6 6 6 7 7 7 7 7 8 8 8 7 6 6 5 5 5 5 5 4 4 3 3 4 5 5
-0 -0 -0 0 2 3 5 6 7 8 8 7 5 4 3 3 5 6 7 6 6 6 6 6 6 6 7 7 7 7 7 7 6 5 5 5 5 5 5 5 4 3 3 3 4 4 4
-1 -0 -0 -0 1 2 4 5 7 8 8 7 5 3 3 3 5 6 6 6 6 5 6 6 7 7 7 7 7 7 7 7 6 5 5 5 5 5 5 5 4 4 4 4 4 3 3
-1 -1 -1 -0 0 1 3 4 6 7 8 8 6 4 3 4 4 5 5 5 5 4 4 6 7 7 7 7 7 7 7 7 6 6 6 5 5 5 5 5 5 5 5 5 4 3 3
-1 -1 -1 -1 -0 1 2 4 5 6 7 8 7 5 4 4 4 4 3 3 4 4 4 6 7 7 6 6 6 6 6 6 6 5 5 5 5 6 6 6 6 6 5 4 4 3 2
-1 -1 -1 -1 -0 0 2 3 4 5 7 8 7 5 4 4 4 3 2 2 3 4 5 6 7 6 6 5 5 5 5 5 5 4 4 4 5 6 6 6 6 5 4 3 2 1 1
-1 -1 -1 -1 -1 -0 1 3 4 5 6 7 8 6 5 4 4 2 1 2 3 5 6 6 6 5 5 5 5 5 4 4 4 4 3 3 3 5 6 6 5 5 4 2 1 1 1
-1 -1 -1 -1 -1 -0 0 2 4 5 5 6 7 6 5 4 4 2 2 3 5 7 7 6 5 4 4 4 4 4 4 4 4 4 4 3 3 5 6 6 5 5 4 3 2 2 1
-1 -1 -1 -1 -1 -1 -0 2 4 5 5 6 6 5 4 4 4 3 3 5 7 7 7 5 4 4 3 3 3 3 3 4 4 5 4 4 4 4 5 5 5 5 4 4 3 2 1
-1 -1 -1 -1 -1 -1 -0 2 4 6 6 6 5 4 4 4 4 4 5 6 7 7 6 5 5 4 3 3 3 3 3 4 4 4 5 4 4 4 4 4 4 4 4 4 3 2 1
-1 -1 -1 -1 -1 -0 0 2 4 6 6 5 4 4 3 3 4 5 5 6 6 6 5 5 4 4 4 3 3 3 3 4 4 4 4 4 4 3 4 4 4 4 4 4 3 3 2
-0 -0 -1 -1 -1 -0 1 2 4 5 6 5 4 3 3 3 4 5 6 6 5 5 5 4 4 4 3 3 3 3 3 3 4 3 3 3 3 3 3 4 5 4 4 4 4 3 3
-1 -0 -0 -0 -0 -0 1 2 3 5 5 5 4 3 3 3 3 5 6 6 5 4 4 4 4 4 3 3 3 3 3 3 3 3 3 3 3 3 3 3 4 4 4 4 4 3 3
-0 -0 -0 -0 -0 0 1 2 3 4 5 5 4 3 3 3 3 4 5 5 4 4 4 4 4 4 4 3 3 3 3 3 3 3 3 2 2 2 3 3 3 4 4 4 3 3 3
0 -0 -0 -0 -0 -0 1 2 3 3 4 4 4 4 3 3 3 3 4 4 4 4 4 4 4 3 3 3 3 3 3 3 3 3 2 2 2 2 2 3 3 4 4 4 3 3 3
1 0 0 0 -0 0 0 1 2 3 4 4 4 4 4 3 3 3 3 3 4 4 4 4 3 3 3 3 3 3 3 3 3 3 2 2 2 2 3 3 3 4 4 4 3 3 3
1 1 1 1 0 0 1 1 2 3 3 4 4 4 4 3 3 3 3 3 3 4 4 3 3 3 3 3 3 3 3 3 3 3 3 3 3 3 3 3 3 3 4 4 3 2 2
1 1 1 1 1 1 1 1 2 2 3 4 4 4 4 3 3 3 3 3 3 3 3 3 3 3 3 3 3 2 2 2 3 3 3 3 3 3 2 2 2 3 4 4 3 3 3
1 1 1 1 1 1 1 1 2 2 3 3 4 4 4 4 4 4 4 4 3 3 3 3 4 4 3 3 2 2 2 2 2 2 3 3 3 2 2 2 2 3 4 5 4 3 4
1 1 1 1 1 1 1 1 1 2 2 3 3 4 3 3 4 4 4 4 4 4 3 4 5 5 4 3 2 2 2 2 2 2 3 3 3 2 2 2 3 4 6 6 5 5 5
2 2 1 1 1 1 1 1 1 1 2 3 3 3 3 3 4 4 4 5 5 5 5 5 5 5 5 4 3 3 3 3 3 3 4 4 4 4 3 3 4 6 7 7 6 7 7
3 2 2 1 1 1 1 1 0 1 2 3 3 3 3 3 4 4 4 5 5 5 5 5 5 5 5 4 4 4 4 4 4 4 5 5 5 5 5 5 6 7 7 7 8 8 8